Regional Weather Roundup
Issued by NWS

Home | Current Version | Previous Version | Graphics & Text | Print | Product List | Glossary On
Versions: 1 2 3 4 5 6 7 8 9 10 11 12 13 14 15 16 17 18 19 20 21 22 23 24 25 26 27 28 29 30 31 32 33 34 35 36 37 38 39 40 41 42 43 44 45 46 47 48 49 50
000
ASUS43 KDMX 270804
RWRIA

WEATHER ROUNDUP FOR IOWA
NATIONAL WEATHER SERVICE DES MOINES IA
  ISSUED BY NWS QUAD CITIES IA IL
200 AM CST FRI FEB 27 2015

NOTE: "FAIR" INDICATES FEW OR NO CLOUDS BELOW 12,000 FEET WITH NO
SIGNIFICANT WEATHER AND/OR OBSTRUCTIONS TO VISIBILITY.

* - THESE STATIONS ARE NOT NWS STATIONS...THUS NOT UNDER NWS
QUALITY CONTROL.  THEY ALSO DO NOT REPORT WEATHER SUCH
AS PRECIPITATION OR FOG.

IAZ001>003-012>014-020>022-031>034-043>046-270900-
   NORTHWEST IOWA

CITY           SKY/WX    TMP DP  RH WIND       PRES   REMARKS
CARROLL *      CLEAR     -9 -17  70 W9        30.55S WCI -27
CHEROKEE *     SUNNY    -14 -19  79 SW3       30.56R
DENNISON *     CLEAR     -9 -15  77 CALM      30.54S
LE MARS *      CLEAR     -6 -11  77 CALM      30.58S
ORANGE CITY *  CLEAR     -9 -15  77 CALM      30.53R
SHELDON *      CLEAR    -13 -18  77 W5        30.52S WCI -25
SIOUX CITY     CLEAR     -3  -9  75 NW6       30.59R WCI -15
SPENCER        CLEAR    -14 -19  79 W9        30.53R WCI -33
STORM LAKE *   CLEAR     -9 -15  77 W9        30.53R WCI -27
$$

IAZ055>058-069>071-079>083-090>094-270900-
   SOUTHWEST IOWA

CITY           SKY/WX    TMP DP  RH WIND       PRES   REMARKS
ATLANTIC *     CLEAR     -8 -13  77 CALM      30.57S
AUDUBON *      CLEAR    -11 -17  77 CALM      30.55R
CLARINDA *     CLEAR     -4  -8  84 CALM      30.62R
COUNCIL BLFS * CLEAR      0  -6  78 NW5       30.56S WCI -10
CRESTON *      MOCLDY    -6 -11  77 NW7       30.55R WCI -20
HARLAN *       CLEAR     -8 -11  84 CALM      30.60S
LAMONI         CLEAR     -3  -8  79 NW7       30.55S WCI -16
RED OAK *      CLEAR     -4  -8  84 CALM      30.60R
SHENANDOAH *   CLEAR     -6  -9  84 SW3       30.62R
$$

IAZ047>049-059>061-072>074-084-270900-
   CENTRAL IOWA

CITY           SKY/WX    TMP DP  RH WIND       PRES   REMARKS
AMES           CLEAR     -6 -12  75 NW7       30.56R WCI -20
ANKENY *       CLEAR     -6 -11  77 W7        30.58R WCI -20
BOONE *        CLEAR     -6 -11  77 NW7       30.53R WCI -20
CHARITON *     CLEAR     -4 -11  71 W7        30.56S WCI -18
DES MOINES     CLEAR     -4 -10  75 W6        30.57R WCI -16
GRINNELL *     SUNNY     -9 -13  82 NW7       30.54R WCI -24
KNOXVILLE *    CLEAR     -6 -13  71 NW6       30.55S WCI -18
MARSHALLTOWN   CLEAR    -14 -17  87 W7        30.53R WCI -30
NEWTON *       CLEAR     -8 -13  77 NW6       30.55S WCI -21
PELLA *        CLEAR     -7  -9  90 W6        30.58R WCI -20
PERRY *          N/A    -10 -15  81 W7        30.56S WCI -26
$$

IAZ004>006-015-016-023>025-035-036-270900-
   NORTH CENTRAL IOWA

CITY           SKY/WX    TMP DP  RH WIND       PRES   REMARKS
ALGONA *       CLEAR     -8 -13  77 NW10      30.52S WCI -26
CLARION *      CLEAR    -15 -22  70 CALM      30.53R
ESTHERVILLE    CLEAR    -12 -16  82 W10       30.50S WCI -31
FORT DODGE *   FAIR     -11 -20  64 CALM      30.54S
MASON CITY     CLEAR    -13 -17  82 NW9       30.51R WCI -31
FOREST CITY *  FAIR     -13 -18  77 W3        30.50R
WEBSTER CITY * CLEAR    -11 -17  77 W10       30.52S WCI -30
IOWA FALLS *   FAIR     -17 -22  75 NW6       30.52S WCI -31
$$

IAZ007>011-017>019-026>030-037>042-050>054-066-270900-
   NORTHEAST IOWA

CITY           SKY/WX    TMP DP  RH WIND       PRES   REMARKS
CEDAR RAPIDS   CLEAR    -12 -15  86 NW7       30.52R WCI -27
CHARLES CITY * PTCLDY   -15 -22  70 NW5       30.50S WCI -27
CLINTON *      CLEAR    -17 -24  70 W7        30.53R WCI -33
DECORAH *      CLEAR     -9 -15  77 CALM      30.47S
DUBUQUE        CLEAR     -3 -11  68 N6        30.47R WCI -15
MONTICELLO *   CLEAR    -15 -20  76 CALM      30.52R
OELWEIN *      PTCLDY   -17 -22  76 NW7       30.50S WCI -33
WATERLOO       PTCLDY   -10 -14  82 W5        30.53R WCI -22
$$

IAZ064-065-067-068-078-270900-
   EAST CENTRAL IOWA

CITY           SKY/WX    TMP DP  RH WIND       PRES   REMARKS
DAVENPORT      CLEAR    -15 -21  74 W9        30.52R WCI -34
IOWA CITY      CLEAR     -6 -11  79 NW10      30.57R WCI -24
MT. PLEASANT * CLEAR     -8 -12  80 W6        30.56R WCI -21
MUSCATINE *    CLEAR     -6 -11  77 NW9       30.58R WCI -22
QUAD CITIES    FAIR      -7 -13  75 W7        30.54R WCI -21
$$

IAZ062-063-075>077-085>089-095>099-270900-
   SOUTHEAST IOWA

CITY           SKY/WX    TMP DP  RH WIND       PRES   REMARKS
BURLINGTON     CLEAR     -6 -11  79 NW8       30.55R WCI -21
FAIRFIELD *    CLEAR    -11 -17  77 W8        30.57R WCI -28
FORT MADISON * CLEAR     -6  -9  84 NW9       30.56R WCI -22
KEOKUK *       CLEAR      0  -8  71 NW8G14    30.57R WCI -15
OSKALOOSA *    FAIR      -9 -14  81 NW7       30.57S WCI -24
CENTERVILLE *  FAIR      -4  -9  77 NW7       30.57S WCI -18
OTTUMWA        CLEAR     -4 -11  72 NW8       30.56R WCI -19
WASHINGTON *     N/A     -8 -11  84 W8        30.56R WCI -23
$$

ABBREVIATIONS USED IN REMARKS
   TC - TEMPERATURES IN CELSIUS
  WCI - WIND CHILL INDEX
   HX - HEAT INDEX
  VSB - VISIBILITY
$$


USA.gov is the U.S. government's official web portal to all federal, state and local government web resources and services.